Regional Weather Roundup
Issued by NWS

Home | Current Version | Previous Version | Text Only | Print | Product List | Glossary On
Versions: 1 2 3 4 5 6 7 8 9 10 11 12 13 14 15 16 17 18 19 20 21 22 23 24 25 26 27 28 29 30 31 32 33 34 35 36 37 38 39 40 41 42 43 44 45 46 47 48 49 50
000
ASUS45 KBOI 211610
RWRID
WEATHER ROUNDUP FOR IDAHO
NATIONAL WEATHER SERVICE BOISE ID
900 AM MST FRI NOV 21 2014

NOTE: "FAIR" INDICATES FEW OR NO CLOUDS BELOW 12000 FEET
WITH NO SIGNIFICANT WEATHER AND/OR OBSTRUCTIONS TO VISIBILITY

IDZ012-014-211700-
SOUTHWEST IDAHO


CITY           SKY/WX    TMP DP  RH WIND       PRES   REMARKS
BOISE          CLOUDY    26  22  84 SE5       30.07S FOG     WCI  20
CALDWELL         N/A    N/A N/A N/A MISG        N/A
MOUNTAIN HOME  MOSUNNY   22  22 100 NE2       30.08R FOG
$$

IDZ016-017-211700-
SOUTHCENTRAL IDAHO


CITY           SKY/WX    TMP DP  RH WIND       PRES   REMARKS
BURLEY         SUNNY     27  24  89 CALM      30.02R
JEROME         MOSUNNY   31  26  82 E10       30.03R WCI  22
TWIN FALLS     SUNNY     31  27  85 SE6       30.02R WCI  25
$$

IDZ019>023-211700-
SOUTHEAST IDAHO


CITY           SKY/WX    TMP DP  RH WIND       PRES   REMARKS
IDAHO FALLS    MOSUNNY   21  19  92 N3        30.04S
POCATELLO      SUNNY     24  22  91 CALM      30.04F
REXBURG        CLOUDY    24  23  96 CALM      30.03S FOG
$$

IDZ006-010-011-018-031-032-211700-
CENTRAL IDAHO MOUNTAINS


CITY           SKY/WX    TMP DP  RH WIND       PRES   REMARKS
MCCALL         CLOUDY    28  28 100 CALM      29.96F
HAILEY         PTSUNNY   28  25  86 NW7       30.04R WCI  21
STANLEY          N/A     21  17  84 CALM      30.01R
SALMON         CLOUDY    19  16  86 CALM      30.04S
CHALLIS        CLOUDY    18  16  92 CALM      30.03R
$$

IDZ002-004-006-007-026-211700-
NORTHERN IDAHO


CITY           SKY/WX    TMP DP  RH WIND       PRES   REMARKS
LEWISTON       CLOUDY    38  34  85 SE7       29.96S WCI  33
LOWELL           N/A     33  30  88 CALM      30.04S
COEUR D`ALENE  CLOUDY    34  30  86 CALM      29.90S VSB 1
MULLAN PASS    FOG       32  29  88 SW7       29.85S VSB<1/4 WCI  26
$$


USA.gov is the U.S. government's official web portal to all federal, state and local government web resources and services.